Location: Ferris
(32.5340°N, 96.6656°W)
Time: 10:30:26
(UTC+00:00)

MOS 1 Rocket - Pass Details

Date: 11 February 2026
Orbit: 608 x 814 km, 97.4° (Epoch: 7 March)

Event Time Altitude Azimuth Distance (km) Brightness Sun altitude
Rises 12:22:56 0° 16° (NNE) 2,899 6.6 -11.1°
Reaches altitude 10° 12:25:07 10° 20° (NNE) 2,006 5.8 -10.7°
Maximum altitude 12:29:26 61° 100° (E) 735 3.8 -9.8°
Drops below altitude 10° 12:33:55 10° 181° (S) 2,092 5.9 -8.9°
Sets 12:36:13 0° 185° (S) 3,035 6.7 -8.4°
